Time,TemperatureF,DewpointF,PressureIn,WindDirection,WindDirectionDegrees,WindSpeedMPH,WindSpeedGustMPH,Humidity,HourlyPrecipIn,Conditions,Clouds,dailyrainin,SoftwareType,DateUTC
2013-03-19 00:02:00,21.0,15.0,-100.00,NW,325,9.0,17.0,74,0.00,,,-99.99,,2013-03-19 05:02:00,
2013-03-19 00:12:00,21.0,14.0,-100.00,North,350,12.0,19.0,73,0.00,,,-99.99,,2013-03-19 05:12:00,
2013-03-19 00:22:00,21.0,13.0,-100.00,NNW,335,14.0,22.0,70,0.00,,,-99.99,,2013-03-19 05:22:00,
2013-03-19 00:32:00,20.0,13.0,-100.00,NW,320,11.0,22.0,72,0.00,,,-99.99,,2013-03-19 05:32:00,
2013-03-19 00:42:00,20.0,13.0,-100.00,NW,320,11.0,22.0,72,0.00,,,-99.99,,2013-03-19 05:42:00,
2013-03-19 00:52:00,20.0,13.0,-100.00,NW,325,14.0,23.0,71,0.00,,,-99.99,,2013-03-19 05:52:00,
2013-03-19 01:02:00,20.0,13.0,-100.00,NW,325,14.0,23.0,71,0.00,,,-99.99,,2013-03-19 06:02:00,
2013-03-19 01:12:00,20.0,12.0,-100.00,NW,320,14.0,26.0,70,0.00,,,-99.99,,2013-03-19 06:12:00,
2013-03-19 01:22:00,20.0,12.0,-100.00,NW,320,14.0,23.0,70,0.00,,,-99.99,,2013-03-19 06:22:00,
2013-03-19 01:32:00,19.0,12.0,-100.00,NW,320,9.0,19.0,72,0.00,,,-99.99,,2013-03-19 06:32:00,
2013-03-19 01:42:00,19.0,12.0,-100.00,NW,320,9.0,19.0,72,0.00,,,-99.99,,2013-03-19 06:42:00,
2013-03-19 01:52:00,19.0,12.0,-100.00,WNW,290,11.0,17.0,72,0.00,,,-99.99,,2013-03-19 06:52:00,
2013-03-19 02:02:00,19.0,12.0,-100.00,WNW,290,11.0,17.0,72,0.00,,,-99.99,,2013-03-19 07:02:00,
2013-03-19 02:12:00,19.0,11.0,-100.00,NW,310,11.0,17.0,70,0.00,,,-99.99,,2013-03-19 07:12:00,
2013-03-19 02:21:00,19.0,12.0,-100.00,WNW,290,9.0,12.0,72,0.00,,,-99.99,,2013-03-19 07:21:00,
2013-03-19 02:32:00,19.0,12.0,-100.00,WNW,290,12.0,19.0,75,0.00,,,-99.99,,2013-03-19 07:32:00,
2013-03-19 02:42:00,19.0,12.0,-100.00,WNW,290,12.0,19.0,75,0.00,,,-99.99,,2013-03-19 07:42:00,
2013-03-19 02:52:00,19.0,12.0,-100.00,NW,315,12.0,19.0,73,0.00,,,-99.99,,2013-03-19 07:52:00,
2013-03-19 03:02:00,19.0,12.0,-100.00,NW,315,12.0,19.0,73,0.00,,,-99.99,,2013-03-19 08:02:00,
2013-03-19 03:12:00,19.0,12.0,-100.00,NW,310,11.0,20.0,73,0.00,,,-99.99,,2013-03-19 08:12:00,
2013-03-19 03:22:00,19.0,11.0,-100.00,WNW,295,14.0,19.0,71,0.00,,,-99.99,,2013-03-19 08:22:00,
2013-03-19 03:32:00,19.0,11.0,-100.00,NW,305,12.0,24.0,69,0.00,,,-99.99,,2013-03-19 08:32:00,
2013-03-19 03:42:00,19.0,11.0,-100.00,NW,305,12.0,24.0,69,0.00,,,-99.99,,2013-03-19 08:42:00,
2013-03-19 03:52:00,19.0,11.0,-100.00,WNW,300,13.0,21.0,70,0.00,,,-99.99,,2013-03-19 08:52:00,
2013-03-19 04:02:00,19.0,11.0,-100.00,WNW,300,13.0,21.0,70,0.00,,,-99.99,,2013-03-19 09:02:00,
2013-03-19 04:12:00,19.0,11.0,-100.00,NW,315,16.0,22.0,69,0.00,,,-99.99,,2013-03-19 09:12:00,
2013-03-19 04:22:00,19.0,11.0,-100.00,NW,315,16.0,21.0,69,0.00,,,-99.99,,2013-03-19 09:22:00,
2013-03-19 04:32:00,19.0,10.0,-100.00,NW,315,12.0,26.0,68,0.00,,,-99.99,,2013-03-19 09:32:00,
2013-03-19 04:42:00,19.0,10.0,-100.00,NW,315,12.0,26.0,68,0.00,,,-99.99,,2013-03-19 09:42:00,
2013-03-19 04:52:00,18.0,10.0,-100.00,NW,305,10.0,21.0,70,0.00,,,-99.99,,2013-03-19 09:52:00,
2013-03-19 05:03:00,18.0,10.0,-100.00,NW,305,10.0,21.0,70,0.00,,,-99.99,,2013-03-19 10:03:00,
2013-03-19 05:12:00,18.0,10.0,-100.00,NW,325,15.0,22.0,69,0.00,,,-99.99,,2013-03-19 10:12:00,
2013-03-19 05:23:00,18.0,10.0,-100.00,NW,320,14.0,25.0,69,0.00,,,-99.99,,2013-03-19 10:23:00,
2013-03-19 05:32:00,18.0,10.0,-100.00,NNW,330,14.0,22.0,69,0.00,,,-99.99,,2013-03-19 10:32:00,
2013-03-19 05:42:00,18.0,10.0,-100.00,NNW,330,14.0,22.0,69,0.00,,,-99.99,,2013-03-19 10:42:00,
2013-03-19 05:52:00,17.0,9.0,-100.00,NW,315,12.0,22.0,69,0.00,,,-99.99,,2013-03-19 10:52:00,
2013-03-19 06:02:00,17.0,9.0,-100.00,NW,315,12.0,22.0,69,0.00,,,-99.99,,2013-03-19 11:02:00,
2013-03-19 06:12:00,17.0,9.0,-100.00,NW,320,12.0,19.0,69,0.00,,,-99.99,,2013-03-19 11:12:00,
2013-03-19 06:22:00,17.0,9.0,-100.00,NNW,330,9.0,18.0,69,0.00,,,-99.99,,2013-03-19 11:22:00,
2013-03-19 06:32:00,17.0,9.0,-100.00,NW,315,10.0,17.0,70,0.00,,,-99.99,,2013-03-19 11:32:00,
2013-03-19 06:42:00,17.0,9.0,-100.00,NW,315,10.0,17.0,70,0.00,,,-99.99,,2013-03-19 11:42:00,
2013-03-19 06:52:00,17.0,9.0,-100.00,NW,315,8.0,14.0,72,0.00,,,-99.99,,2013-03-19 11:52:00,
2013-03-19 07:02:00,17.0,9.0,-100.00,NW,315,8.0,14.0,72,0.00,,,-99.99,,2013-03-19 12:02:00,
2013-03-19 07:12:00,17.0,9.0,-100.00,NW,305,7.0,13.0,72,0.00,,,-99.99,,2013-03-19 12:12:00,
2013-03-19 07:22:00,16.0,9.0,-100.00,NW,305,7.0,16.0,71,0.00,,,-99.99,,2013-03-19 12:22:00,
2013-03-19 07:33:00,16.0,8.0,-100.00,WNW,300,7.0,12.0,69,0.00,,,-99.99,,2013-03-19 12:33:00,
2013-03-19 07:42:00,16.0,8.0,-100.00,WNW,300,7.0,12.0,69,0.00,,,-99.99,,2013-03-19 12:42:00,
2013-03-19 07:52:00,17.0,8.0,-100.00,NNW,340,7.0,13.0,69,0.00,,,-99.99,,2013-03-19 12:52:00,
2013-03-19 08:02:00,17.0,8.0,-100.00,NNW,340,7.0,13.0,69,0.00,,,-99.99,,2013-03-19 13:02:00,
2013-03-19 08:12:00,17.0,8.0,-100.00,NW,315,9.0,13.0,69,0.00,,,-99.99,,2013-03-19 13:12:00,
2013-03-19 08:22:00,17.0,9.0,-100.00,WNW,300,6.0,9.0,68,0.00,,,-99.99,,2013-03-19 13:22:00,
2013-03-19 08:32:00,17.0,8.0,-100.00,NNW,335,11.0,16.0,66,0.00,,,-99.99,,2013-03-19 13:32:00,
2013-03-19 08:42:00,17.0,8.0,-100.00,NNW,335,11.0,16.0,66,0.00,,,-99.99,,2013-03-19 13:42:00,
2013-03-19 08:52:00,18.0,9.0,-100.00,NW,325,10.0,18.0,65,0.00,,,-99.99,,2013-03-19 13:52:00,
2013-03-19 09:02:00,18.0,9.0,-100.00,NW,325,10.0,18.0,65,0.00,,,-99.99,,2013-03-19 14:02:00,
2013-03-19 09:12:00,18.0,8.0,-100.00,NW,325,11.0,20.0,63,0.00,,,-99.99,,2013-03-19 14:12:00,
2013-03-19 09:22:00,18.0,8.0,-100.00,NW,325,12.0,21.0,62,0.00,,,-99.99,,2013-03-19 14:22:00,
2013-03-19 09:32:00,20.0,9.0,-100.00,NW,305,10.0,19.0,62,0.00,,,-99.99,,2013-03-19 14:32:00,
2013-03-19 09:42:00,20.0,9.0,-100.00,NW,305,10.0,19.0,62,0.00,,,-99.99,,2013-03-19 14:42:00,
2013-03-19 09:52:00,20.0,9.0,-100.00,North,355,11.0,17.0,61,0.00,,,-99.99,,2013-03-19 14:52:00,
2013-03-19 10:02:00,20.0,9.0,-100.00,North,355,11.0,17.0,61,0.00,,,-99.99,,2013-03-19 15:02:00,
2013-03-19 10:12:00,20.0,8.0,-100.00,NW,325,12.0,22.0,59,0.00,,,-99.99,,2013-03-19 15:12:00,
2013-03-19 10:22:00,20.0,9.0,-100.00,NNW,335,10.0,16.0,60,0.00,,,-99.99,,2013-03-19 15:22:00,
2013-03-19 10:33:00,21.0,9.0,-100.00,North,350,12.0,17.0,58,0.00,,,-99.99,,2013-03-19 15:33:00,
2013-03-19 10:43:00,21.0,9.0,-100.00,North,350,12.0,17.0,58,0.00,,,-99.99,,2013-03-19 15:43:00,
2013-03-19 10:53:00,21.0,9.0,-100.00,NNW,330,12.0,17.0,57,0.00,,,-99.99,,2013-03-19 15:53:00,
2013-03-19 11:03:00,21.0,9.0,-100.00,NNW,330,12.0,17.0,57,0.00,,,-99.99,,2013-03-19 16:03:00,
2013-03-19 11:13:00,22.0,9.0,-100.00,NW,320,11.0,16.0,56,0.00,,,-99.99,,2013-03-19 16:13:00,
2013-03-19 11:23:00,23.0,9.0,-100.00,NW,325,9.0,16.0,56,0.00,,,-99.99,,2013-03-19 16:23:00,
2013-03-19 11:34:00,23.0,9.0,-100.00,NNW,345,10.0,17.0,54,0.00,,,-99.99,,2013-03-19 16:34:00,
2013-03-19 11:43:00,23.0,9.0,-100.00,NNW,345,10.0,17.0,54,0.00,,,-99.99,,2013-03-19 16:43:00,
2013-03-19 11:53:00,24.0,10.0,-100.00,NNW,335,11.0,15.0,54,0.00,,,-99.99,,2013-03-19 16:53:00,
2013-03-19 12:03:00,24.0,10.0,-100.00,NNW,335,11.0,15.0,54,0.00,,,-99.99,,2013-03-19 17:03:00,
2013-03-19 12:13:00,25.0,11.0,-100.00,North,350,7.0,15.0,55,0.00,,,-99.99,,2013-03-19 17:13:00,
2013-03-19 12:23:00,25.0,11.0,-100.00,NNW,340,12.0,16.0,54,0.00,,,-99.99,,2013-03-19 17:23:00,
2013-03-19 12:34:00,26.0,11.0,-100.00,NW,315,7.0,16.0,52,0.00,,,-99.99,,2013-03-19 17:34:00,
2013-03-19 12:43:00,26.0,11.0,-100.00,NW,315,7.0,16.0,52,0.00,,,-99.99,,2013-03-19 17:43:00,
2013-03-19 12:52:00,28.0,13.0,-100.00,NW,325,4.0,11.0,53,0.00,,,-99.99,,2013-03-19 17:52:00,
2013-03-19 13:03:00,28.0,13.0,-100.00,NW,325,4.0,11.0,53,0.00,,,-99.99,,2013-03-19 18:03:00,
2013-03-19 13:13:00,27.0,14.0,-100.00,West,275,7.0,12.0,56,0.00,,,-99.99,,2013-03-19 18:13:00,
2013-03-19 13:23:00,28.0,13.0,-100.00,WNW,290,8.0,14.0,51,0.00,,,-99.99,,2013-03-19 18:23:00,
2013-03-19 13:33:00,27.0,13.0,-100.00,WNW,290,9.0,14.0,54,0.00,,,-99.99,,2013-03-19 18:33:00,
2013-03-19 13:42:00,27.0,13.0,-100.00,WNW,290,9.0,14.0,54,0.00,,,-99.99,,2013-03-19 18:42:00,
2013-03-19 13:52:00,29.0,15.0,-100.00,WNW,295,8.0,14.0,54,0.00,,,-99.99,,2013-03-19 18:52:00,
2013-03-19 14:02:00,29.0,15.0,-100.00,WNW,295,8.0,14.0,54,0.00,,,-99.99,,2013-03-19 19:02:00,
2013-03-19 14:12:00,31.0,15.0,-100.00,West,260,4.0,16.0,52,0.00,,,-99.99,,2013-03-19 19:12:00,
2013-03-19 14:22:00,30.0,14.0,-100.00,WNW,290,8.0,15.0,50,0.00,,,-99.99,,2013-03-19 19:22:00,
2013-03-19 14:32:00,31.0,16.0,-100.00,WNW,285,11.0,17.0,52,0.00,,,-99.99,,2013-03-19 19:32:00,
2013-03-19 14:42:00,31.0,16.0,-100.00,WNW,285,11.0,17.0,52,0.00,,,-99.99,,2013-03-19 19:42:00,
2013-03-19 14:52:00,32.0,16.0,-100.00,NW,320,6.0,11.0,50,0.00,,,-99.99,,2013-03-19 19:52:00,
2013-03-19 15:02:00,32.0,16.0,-100.00,NW,320,6.0,11.0,50,0.00,,,-99.99,,2013-03-19 20:02:00,
2013-03-19 15:12:00,31.0,17.0,-100.00,WNW,300,11.0,15.0,54,0.00,,,-99.99,,2013-03-19 20:12:00,
2013-03-19 15:22:00,33.0,18.0,-100.00,WSW,255,7.0,13.0,53,0.00,,,-99.99,,2013-03-19 20:22:00,
2013-03-19 15:32:00,33.0,15.0,-100.00,NW,305,10.0,16.0,47,0.00,,,-99.99,,2013-03-19 20:32:00,
2013-03-19 15:42:00,33.0,15.0,-100.00,NW,305,10.0,16.0,47,0.00,,,-99.99,,2013-03-19 20:42:00,
2013-03-19 15:52:00,33.0,16.0,-100.00,NW,325,12.0,16.0,48,0.00,,,-99.99,,2013-03-19 20:52:00,
2013-03-19 16:02:00,33.0,16.0,-100.00,NW,325,12.0,16.0,48,0.00,,,-99.99,,2013-03-19 21:02:00,
2013-03-19 16:12:00,34.0,16.0,-100.00,NW,305,11.0,17.0,47,0.00,,,-99.99,,2013-03-19 21:12:00,
2013-03-19 16:22:00,35.0,18.0,-100.00,NW,325,9.0,16.0,49,0.00,,,-99.99,,2013-03-19 21:22:00,
2013-03-19 16:33:00,35.0,16.0,-100.00,WNW,285,11.0,14.0,45,0.00,,,-99.99,,2013-03-19 21:33:00,
2013-03-19 16:42:00,35.0,16.0,-100.00,WNW,285,11.0,14.0,45,0.00,,,-99.99,,2013-03-19 21:42:00,
2013-03-19 16:52:00,35.0,17.0,-100.00,NW,305,9.0,13.0,46,0.00,,,-99.99,,2013-03-19 21:52:00,
2013-03-19 17:03:00,35.0,17.0,-100.00,NW,305,9.0,13.0,46,0.00,,,-99.99,,2013-03-19 22:03:00,
2013-03-19 17:12:00,36.0,18.0,-100.00,NNW,330,7.0,11.0,47,0.00,,,-99.99,,2013-03-19 22:12:00,
2013-03-19 17:23:00,35.0,16.0,-100.00,NNW,330,9.0,13.0,45,0.00,,,-99.99,,2013-03-19 22:23:00,
2013-03-19 17:33:00,36.0,19.0,-100.00,NW,315,7.0,12.0,49,0.00,,,-99.99,,2013-03-19 22:33:00,
2013-03-19 17:43:00,36.0,19.0,-100.00,NW,315,7.0,12.0,49,0.00,,,-99.99,,2013-03-19 22:43:00,
2013-03-19 17:52:00,35.0,19.0,-100.00,NW,310,9.0,13.0,50,0.00,,,-99.99,,2013-03-19 22:52:00,
2013-03-19 18:02:00,35.0,19.0,-100.00,NW,310,9.0,13.0,50,0.00,,,-99.99,,2013-03-19 23:02:00,
2013-03-19 18:12:00,35.0,19.0,-100.00,NW,320,8.0,12.0,50,0.00,,,-99.99,,2013-03-19 23:12:00,
2013-03-19 18:22:00,35.0,19.0,-100.00,North,0,9.0,12.0,50,0.00,,,-99.99,,2013-03-19 23:22:00,
2013-03-19 18:32:00,35.0,20.0,-100.00,NNW,340,9.0,14.0,53,0.00,,,-99.99,,2013-03-19 23:32:00,
2013-03-19 18:42:00,35.0,20.0,-100.00,NNW,340,9.0,14.0,53,0.00,,,-99.99,,2013-03-19 23:42:00,
2013-03-19 18:52:00,34.0,21.0,-100.00,North,355,8.0,11.0,57,0.00,,,-99.99,,2013-03-19 23:52:00,
2013-03-19 19:02:00,34.0,21.0,-100.00,North,355,8.0,11.0,57,0.00,,,-99.99,,2013-03-20 00:02:00,
2013-03-19 19:12:00,34.0,22.0,-100.00,North,355,7.0,12.0,61,0.00,,,-99.99,,2013-03-20 00:12:00,
2013-03-19 19:22:00,33.0,21.0,-100.00,North,355,7.0,12.0,61,0.00,,,-99.99,,2013-03-20 00:22:00,
2013-03-19 19:33:00,32.0,22.0,-100.00,North,350,5.0,10.0,64,0.00,,,-99.99,,2013-03-20 00:33:00,
2013-03-19 19:42:00,32.0,22.0,-100.00,North,350,5.0,10.0,64,0.00,,,-99.99,,2013-03-20 00:42:00,
2013-03-19 19:52:00,32.0,21.0,-100.00,NNW,335,4.0,7.0,64,0.00,,,-99.99,,2013-03-20 00:52:00,
2013-03-19 20:03:00,32.0,21.0,-100.00,NNW,335,4.0,7.0,64,0.00,,,-99.99,,2013-03-20 01:03:00,
2013-03-19 20:12:00,32.0,21.0,-100.00,NNW,335,4.0,7.0,65,0.00,,,-99.99,,2013-03-20 01:12:00,
2013-03-19 20:22:00,31.0,21.0,-100.00,NNW,330,3.0,6.0,66,0.00,,,-99.99,,2013-03-20 01:22:00,
2013-03-19 20:32:00,31.0,23.0,-100.00,North,0,6.0,10.0,71,0.00,,,-99.99,,2013-03-20 01:32:00,
2013-03-19 20:42:00,31.0,23.0,-100.00,North,0,6.0,10.0,71,0.00,,,-99.99,,2013-03-20 01:42:00,
2013-03-19 20:52:00,31.0,24.0,-100.00,North,0,6.0,9.0,76,0.00,,,-99.99,,2013-03-20 01:52:00,
2013-03-19 21:02:00,31.0,24.0,-100.00,North,0,6.0,9.0,76,0.00,,,-99.99,,2013-03-20 02:02:00,
2013-03-19 21:12:00,30.0,24.0,-100.00,North,0,6.0,9.0,79,0.00,,,-99.99,,2013-03-20 02:12:00,
2013-03-19 21:22:00,30.0,24.0,-100.00,North,0,7.0,11.0,78,0.00,,,-99.99,,2013-03-20 02:22:00,
2013-03-19 21:32:00,30.0,23.0,-100.00,North,0,11.0,15.0,74,0.00,,,-99.99,,2013-03-20 02:32:00,
2013-03-19 21:42:00,30.0,23.0,-100.00,North,0,11.0,15.0,74,0.00,,,-99.99,,2013-03-20 02:42:00,
2013-03-19 21:52:00,29.0,23.0,-100.00,North,0,7.0,12.0,76,0.00,,,-99.99,,2013-03-20 02:52:00,
2013-03-19 22:02:00,29.0,23.0,-100.00,North,0,7.0,12.0,76,0.00,,,-99.99,,2013-03-20 03:02:00,
2013-03-19 22:12:00,29.0,22.0,-100.00,North,355,7.0,11.0,73,0.00,,,-99.99,,2013-03-20 03:12:00,
2013-03-19 22:22:00,30.0,22.0,-100.00,NNW,335,7.0,12.0,72,0.00,,,-99.99,,2013-03-20 03:22:00,
2013-03-19 22:33:00,29.0,22.0,-100.00,North,0,7.0,12.0,73,0.00,,,-99.99,,2013-03-20 03:33:00,
2013-03-19 22:42:00,29.0,22.0,-100.00,North,0,7.0,12.0,73,0.00,,,-99.99,,2013-03-20 03:42:00,
2013-03-19 22:53:00,28.0,24.0,-100.00,North,10,15.0,24.0,83,0.00,,,-99.99,,2013-03-20 03:53:00,
2013-03-19 23:03:00,28.0,24.0,-100.00,North,10,15.0,24.0,83,0.00,,,-99.99,,2013-03-20 04:03:00,
2013-03-19 23:12:00,27.0,24.0,-100.00,North,0,14.0,20.0,84,0.00,,,-99.99,,2013-03-20 04:12:00,
2013-03-19 23:22:00,27.0,23.0,-100.00,North,0,12.0,20.0,85,0.00,,,-99.99,,2013-03-20 04:22:00,
2013-03-19 23:32:00,25.0,21.0,-100.00,North,5,15.0,24.0,82,0.00,,,-99.99,,2013-03-20 04:32:00,
2013-03-19 23:43:00,25.0,21.0,-100.00,North,5,15.0,24.0,82,0.00,,,-99.99,,2013-03-20 04:43:00,
2013-03-19 23:52:00,23.0,18.0,-100.00,North,5,19.0,27.0,81,0.00,,,-99.99,,2013-03-20 04:52:00,